Location: Newark
(50.4348°N, 30.5552°E)
Time: 07:25:20
(UTC+00:00)

Vanguard 3 - Pass Details

Date: 18 January 2020
Orbit: 508 x 3263 km, 33.3° (Epoch: 20 February)

Event Time Altitude Azimuth Distance (km) Brightness Sun altitude
Rises 18:06:51 0° 235° (SW) 7,089 12.5 -34.5°
Reaches altitude 10° 18:12:36 10° 228° (SW) 5,834 11.8 -35.4°
Maximum altitude 18:26:29 33° 174° (S) 3,341 10.0 -37.5°
Enters shadow 18:26:47 33° 171° (S) 3,318 9.9 -37.6°
